Simultaneous Nadir Overpasses (SNOs) Predictions

Prediction of SNOs between AQUA and METOP-C Satellite Orbit:

Table of predicted SNOs for the next 14.0 days since TLE Epoch: 5/14/2022
Index Date (AQUA) Time (AQUA) Lat,Lon (AQUA) SZA (AQUA ) Date (METOP-C) Time (METOP-C) Lat,Lon (METOP-C) SZA (METOP-C ) Distance(km) Time Diff (sec)
1 05/16/2022 07:03:15 73.84, 68.86 54.69 05/16/2022 07:02:26 73.86, 68.86 54.71 1.67 49
2 05/16/2022 07:52:42 -73.92,-123.67 125.24 05/16/2022 07:53:06 -73.92,-123.66 125.24 0.11 24
3 05/19/2022 01:47:26 -73.18, -30.82 126.62 05/19/2022 01:46:20 -73.15, -33.67 126.56 91.67 66
4 05/19/2022 02:37:06 73.87, 135.36 54.09 05/19/2022 02:36:46 73.85, 135.26 54.08 3.30 20
5 05/19/2022 03:26:33 -73.94, -57.16 125.84 05/19/2022 03:27:26 -73.93, -57.23 125.86 2.77 53
6 05/21/2022 21:21:29 -73.86, 34.29 126.50 05/21/2022 21:20:26 -73.85, 34.34 126.50 1.70 63
7 05/21/2022 22:10:57 73.92,-158.21 53.57 05/21/2022 22:11:05 73.89,-158.23 53.54 3.24 8
8 05/21/2022 23:00:29 -74.25, 8.69 126.10 05/21/2022 23:01:39 -74.27, 10.03 126.12 40.66 70
9 05/24/2022 16:55:18 -73.89, 100.79 127.00 05/24/2022 16:54:44 -73.89, 100.85 126.99 2.10 34
10 05/24/2022 17:44:46 73.95, -91.72 53.07 05/24/2022 17:45:23 73.92, -91.73 53.03 3.14 37
11 05/27/2022 11:39:38 73.72, 0.07 52.35 05/27/2022 11:38:26 73.68, -0.57 52.33 20.59 72
12 05/27/2022 12:29:07 -73.89, 167.33 127.48 05/27/2022 12:29:04 -73.88, 167.23 127.49 3.47 3



Historial Predications of SNOs between AQUA and METOP-C
